Terminal Aerodrome Forecast
Issued by NWS Portland, OR

Home | Current Version | Previous Version | Text Only | Print | Product List | Glossary On
Versions: 1 2 3 4 5 6 7 8 9 10 11 12 13 14 15 16 17 18 19 20 21 22 23 24 25 26 27 28 29 30 31 32 33 34 35 36 37 38 39 40 41 42 43 44 45 46 47 48 49 50
000
FTUS46 KPQR 211455 AAA
TAFPDX
TAF AMD
KPDX 211455Z 2115/2212 19012KT P6SM VCSH SCT025 BKN050 BKN080
     FM211900 18012KT P6SM SCT025 BKN050 BKN100
     FM220300 15012KT P6SM -RA OVC060
     FM220600 15015KT P6SM -RA OVC045=

USA.gov is the U.S. government's official web portal to all federal, state and local government web resources and services.